Weather Roundup
Issued by NWS Chicago, IL

Home | Current Version | Previous Version | Graphics & Text | Print | Product List | Glossary On
Versions: 1 2 3 4 5 6 7 8 9 10 11 12 13 14 15 16 17 18 19 20 21 22 23 24 25 26 27 28 29 30 31 32 33 34 35 36 37 38 39 40 41 42 43 44 45 46 47 48 49 50
000
NZUS59 KLOT 161100
HRRLOT

CHICAGO AREA WEATHER ROUNDUP
NATIONAL WEATHER SERVICE CHICAGO/ROMEOVILLE IL
600 AM CDT WED APR 16 2014

NOTE: "FAIR" INDICATES FEW OR NO CLOUDS BELOW 12,000 FEET WITH NO
SIGNIFICANT WEATHER AND/OR OBSTRUCTIONS TO VISIBILITY.

* THESE STATIONS ARE NOT UNDER NWS QUALITY CONTROL. THEY ALSO MAY NOT
  REPORT WEATHER SUCH AS PRECIPITATION OR FOG.

ILZ005-006-012>014-019>023-161200-
NORTHEAST ILLINOIS

CITY           SKY/WX    TMP DP  RH WIND       PRES   REMARKS
OHARE          PTCLDY    29  19  66 S8        30.26R WCI  21
MIDWAY         PTCLDY    31  21  66 SE6       30.27R WCI  25
AURORA         CLEAR     28  22  78 SE8       30.25R WCI  20
WAUKEGAN       MOCLDY    30  20  66 S12       30.25R WCI  20
DUPAGE AIRPORT CLEAR     29  21  72 SE9       30.24R WCI  20
WHEELING       PTCLDY    28  21  75 S6        30.27R WCI  22
NORTHERLY IS     N/A     32  20  61 S7          N/A  WCI  26
$$

WIZ051-052-058>065-066-070>072-161200-
SOUTHEAST WISCONSIN

CITY           SKY/WX    TMP DP  RH WIND       PRES   REMARKS
MILWAUKEE      MOCLDY    31  21  66 S6        30.26R WCI  25
KENOSHA*       PTCLDY    28  21  75 S7        30.24S WCI  21
RACINE*        PTCLDY    29  21  72 S3        30.27R
WAUKESHA       PTCLDY    25  21  86 SE5       30.24R WCI  19
$$

INZ001>003-010>013-019-020-161200-
NORTHWEST INDIANA

CITY           SKY/WX    TMP DP  RH WIND       PRES   REMARKS
GARY*          CLEAR     32  19  59 SE6       30.30R WCI  26
MICHIGAN CITY* NOT AVBL
RENSSELAER*    NOT AVBL
VALPARAISO     CLEAR     26  18  71 SE8       30.30R WCI  18
$$

LMZ740>746-161200-
SOUTHERN LAKE MICHIGAN

STATION/POSITION TIME  SKY/WX   TEMP WIND        PRES    VSBY
                                AIR  DIR/SP/G
                 (UTC)          (F)  (DEG/KT/KT) (MB)    (MI)
HARRISON CRIB    1000            34  180/ 21/ 24   N/A
BURNHAM HARBOR   1100            32  180/  6/ 13   N/A
CALUMET HARBOR   1000            31  160/  8/ 11 1025.8R
BURNS HARBOR     NOT AVBL
MICHIGAN CITY    1000            30  140/ 10/ 13   N/A
$$

ABBREVIATIONS USED IN REMARKS
   TC - TEMPERATURE IN CELSIUS
  WCI - WIND CHILL INDEX
   HX - HEAT INDEX
  VSB - VISIBILITY
$$



USA.gov is the U.S. government's official web portal to all federal, state and local government web resources and services.